This is the latest recevied weather packets stored in our database for station/object K4VEB. If no packets are shown the sender has not sent any weather packets the latest 10 day(s).
| Time | Temp. | Humidity | Pressure | Rain* | Wind** | Luminosity | Snow |
|---|---|---|---|---|---|---|---|
| 1778017729 | 31.11° C | 37% | 1014 hPa | 0 mm | - | 292 W/m² | - |
| 1778017426 | 31.11° C | 36% | 1014.2 hPa | 0 mm | - | 347 W/m² | - |
| 1778017123 | 31.11° C | 36% | 1014.1 hPa | 0 mm | - | 329 W/m² | - |
| 1778016821 | 30.56° C | 37% | 1014 hPa | 0 mm | - | 376 W/m² | - |
| 1778016517 | 30.56° C | 37% | 1014.3 hPa | 0 mm | - | 380 W/m² | - |
| 1778016214 | 30.56° C | 39% | 1014.1 hPa | 0 mm | - | 290 W/m² | - |
| 1778015910 | 31.11° C | 37% | 1014.2 hPa | 0 mm | - | 400 W/m² | - |
| 1778015608 | 31.11° C | 38% | 1013.9 hPa | 0 mm | - | 451 W/m² | - |
| 1778015304 | 31.11° C | 38% | 1014.1 hPa | 0 mm | - | 451 W/m² | - |
| 1778015001 | 30.56° C | 39% | 1014.1 hPa | 0 mm | - | 466 W/m² | - |
| 1778014698 | 30.56° C | 38% | 1013.9 hPa | 0 mm | - | 455 W/m² | - |
| 1778014397 | 30.56° C | 38% | 1014 hPa | 0 mm | - | 480 W/m² | - |
| 1778014093 | 30° C | 40% | 1014.1 hPa | 0 mm | - | 514 W/m² | - |
| 1778013791 | 30° C | 40% | 1014.1 hPa | 0 mm | - | 556 W/m² | - |
| 1778013488 | 30° C | 40% | 1014.3 hPa | 0 mm | - | 511 W/m² | - |
| 1778013184 | 29.44° C | 41% | 1014.2 hPa | 0 mm | - | 532 W/m² | - |
| 1778012881 | 29.44° C | 42% | 1014.2 hPa | 0 mm | - | 483 W/m² | - |
| 1778012577 | 29.44° C | 42% | 1014.2 hPa | 0 mm | - | 200 W/m² | - |
| 1778012273 | 28.89° C | 43% | 1014.4 hPa | 0 mm | - | 369 W/m² | - |
| 1778011971 | 28.89° C | 43% | 1014.3 hPa | 0 mm | - | 201 W/m² | - |
| 1778011366 | 29.44° C | 42% | 1014.6 hPa | 0 mm | - | 220 W/m² | - |
| 1778011061 | 29.44° C | 42% | 1014.7 hPa | 0 mm | - | 220 W/m² | - |
| 1778010759 | 30° C | 41% | 1014.7 hPa | 0 mm | - | 310 W/m² | - |
| 1778010456 | 30.56° C | 41% | 1014.7 hPa | 0 mm | - | 630 W/m² | - |
| 1778009848 | 31.11° C | 39% | 1014.8 hPa | 0 mm | - | 281 W/m² | - |
* Rain latest hour (hover to see other rain measurements)
** Current wind speed in m/s (hover to see current wind gust speed)